| time (UTC) | temp F | wind direction | speed MPH | gust MPH | rain 1hr in | rain 24hr in | rain mn in | humidity % | barometer mb |
| 20260507085017 | 48 | 243 | 1.0 | 7.0 | 0.06 | 0.25 | 0.14 | 93 | 1009.3 |
| 20260507084534 | 49 | 271 | 1.0 | 4.0 | 0.06 | 0.24 | 0.13 | 93 | 1009.1 |
| 20260507084019 | 49 | 328 | 2.0 | 4.0 | 0.06 | 0.24 | 0.13 | 93 | 1009.3 |
| 20260507083516 | 49 | 342 | 1.0 | 4.0 | 0.06 | 0.24 | 0.13 | 93 | 1009.3 |
| 20260507083036 | 49 | 282 | 1.0 | 5.0 | 0.05 | 0.23 | 0.12 | 93 | 1009.2 |
| 20260507082517 | 49 | 298 | 1.0 | 7.0 | 0.06 | 0.23 | 0.12 | 93 | 1009.3 |
| 20260507082016 | 49 | 178 | 2.0 | 7.0 | 0.05 | 0.22 | 0.11 | 93 | 1009.6 |
| 20260507081536 | 49 | 46 | 1.0 | 3.0 | 0.04 | 0.21 | 0.10 | 93 | 1009.4 |
| 20260507081016 | 49 | 0 | 1.0 | 4.0 | 0.04 | 0.21 | 0.10 | 93 | 1009.2 |
| 20260507080520 | 49 | 316 | 1.0 | 6.0 | 0.04 | 0.20 | 0.09 | 93 | 1009.5 |
| 20260507080036 | 49 | 325 | 2.0 | 8.0 | 0.03 | 0.19 | 0.08 | 93 | 1009.4 |
| 20260507075516 | 49 | 269 | 2.0 | 8.0 | 0.04 | 0.19 | 0.08 | 93 | 1009.7 |
| 20260507075016 | 49 | 265 | 2.0 | 6.0 | 0.04 | 0.18 | 0.07 | 93 | 1009.4 |
| 20260507074533 | 49 | 303 | 2.0 | 5.0 | 0.04 | 0.18 | 0.07 | 93 | 1009.4 |
| 20260507074016 | 49 | 221 | 1.0 | 4.0 | 0.05 | 0.18 | 0.07 | 93 | 1009.5 |
| 20260507073516 | 50 | 344 | 1.0 | 5.0 | 0.05 | 0.18 | 0.07 | 93 | 1009.5 |
| 20260507073033 | 50 | 303 | 1.0 | 5.0 | 0.05 | 0.18 | 0.07 | 93 | 1009.5 |
| 20260507072516 | 50 | 309 | 2.0 | 6.0 | 0.05 | 0.17 | 0.06 | 93 | 1009.4 |
| 20260507072015 | 50 | 303 | 1.0 | 6.0 | 0.05 | 0.17 | 0.06 | 92 | 1009.2 |
| 20260507071530 | 50 | 288 | 2.0 | 6.0 | 0.05 | 0.17 | 0.06 | 92 | 1009.5 |
| 20260507071016 | 50 | 234 | 1.0 | 6.0 | 0.05 | 0.17 | 0.06 | 92 | 1009.2 |
| 20260507070516 | 50 | 313 | 2.0 | 7.0 | 0.04 | 0.16 | 0.05 | 92 | 1009.2 |
| 20260507070030 | 50 | 30 | 2.0 | 7.0 | 0.04 | 0.16 | 0.05 | 92 | 1009.5 |
| 20260507065515 | 50 | 330 | 1.0 | 4.0 | 0.03 | 0.15 | 0.04 | 91 | 1009.6 |
| 20260507065015 | 50 | 291 | 2.0 | 4.0 | 0.03 | 0.14 | 0.03 | 91 | 1009.5 |
| 20260507064530 | 50 | 325 | 2.0 | 4.0 | 0.03 | 0.14 | 0.03 | 91 | 1009.4 |
| 20260507064016 | 51 | 15 | 1.0 | 5.0 | 0.02 | 0.13 | 0.02 | 91 | 1009.2 |
| 20260507063517 | 51 | 72 | 1.0 | 5.0 | 0.02 | 0.13 | 0.02 | 91 | 1009.4 |
| 20260507063034 | 51 | 312 | 1.0 | 6.0 | 0.02 | 0.13 | 0.02 | 90 | 1009.2 |
| 20260507062516 | 51 | 291 | 1.0 | 6.0 | 0.01 | 0.12 | 0.01 | 90 | 1008.6 |
| 20260507062017 | 51 | 334 | 1.0 | 8.0 | 0.01 | 0.12 | 0.01 | 90 | 1008.9 |
| 20260507061535 | 51 | 303 | 2.0 | 8.0 | 0.01 | 0.12 | 0.01 | 90 | 1009.3 |
| 20260507061016 | 52 | 309 | 1.0 | 4.0 | 0.01 | 0.12 | 0.01 | 90 | 1009.2 |
| 20260507060515 | 52 | 243 | 1.0 | 3.0 | 0.01 | 0.12 | 0.01 | 90 | 1009.4 |
| 20260507060031 | 52 | 329 | 1.0 | 3.0 | 0.01 | 0.12 | 0.01 | 89 | 1009.1 |
| 20260507055517 | 52 | 0 | 1.0 | 4.0 | 0.01 | 0.12 | 0.01 | 88 | 1009.2 |
| 20260507055017 | 52 | 309 | 1.0 | 8.0 | 0.00 | 0.11 | 0.00 | 87 | 1008.7 |
| 20260507054534 | 53 | 0 | 2.0 | 8.0 | 0.00 | 0.11 | 0.00 | 86 | 1008.7 |
| 20260507054015 | 53 | 137 | 2.0 | 6.0 | 0.00 | 0.11 | 0.00 | 86 | 1008.5 |
| 20260507053517 | 53 | 0 | 2.0 | 6.0 | 0.00 | 0.11 | 0.00 | 85 | 1008.4 |
| 20260507053030 | 53 | 323 | 1.0 | 7.0 | 0.00 | 0.11 | 0.00 | 84 | 1008.7 |
| 20260507052515 | 53 | 296 | 2.0 | 9.0 | 0.00 | 0.11 | 0.00 | 84 | 1008.7 |
| 20260507052016 | 54 | 319 | 1.0 | 9.0 | 0.00 | 0.11 | 0.00 | 84 | 1008.7 |
| 20260507051532 | 54 | 243 | 2.0 | 12.0 | 0.00 | 0.11 | 0.00 | 84 | 1008.8 |
| 20260507051016 | 54 | 314 | 1.0 | 12.0 | 0.00 | 0.11 | 0.00 | 85 | 1008.9 |
| 20260507050514 | 54 | 41 | 3.0 | 9.0 | 0.00 | 0.11 | 0.00 | 85 | 1009.0 |
| 20260507050036 | 54 | 9 | 3.0 | 9.0 | 0.00 | 0.11 | 0.00 | 86 | 1008.7 |
| 20260507045519 | 54 | 68 | 3.0 | 8.0 | 0.00 | 0.11 | 0.00 | 86 | 1008.7 |
| 20260507045013 | 54 | 20 | 2.0 | 7.0 | 0.00 | 0.11 | 0.00 | 86 | 1008.9 |
| 20260507044531 | 54 | 316 | 2.0 | 5.0 | 0.00 | 0.11 | 0.00 | 87 | 1008.9 |
| 20260507044016 | 55 | 232 | 2.0 | 5.0 | 0.00 | 0.11 | 0.00 | 86 | 1008.9 |
| 20260507043519 | 55 | 304 | 2.0 | 6.0 | 0.00 | 0.11 | 0.00 | 86 | 1008.8 |
| 20260507043032 | 55 | 309 | 3.0 | 7.0 | 0.00 | 0.11 | 0.00 | 86 | 1008.8 |
| 20260507042515 | 55 | 311 | 2.0 | 7.0 | 0.00 | 0.11 | 0.00 | 86 | 1009.0 |
| 20260507042017 | 55 | 9 | 1.0 | 4.0 | 0.00 | 0.11 | 0.00 | 86 | 1009.0 |
| 20260507041547 | 55 | 309 | 1.0 | 4.0 | 0.00 | 0.11 | 0.00 | 86 | 1008.9 |
| 20260507041017 | 55 | 309 | 1.0 | 6.0 | 0.00 | 0.11 | 0.00 | 86 | 1009.0 |
| 20260507040516 | 55 | 316 | 2.0 | 6.0 | 0.00 | 0.11 | 0.00 | 86 | 1008.9 |
| 20260507040032 | 55 | 316 | 1.0 | 4.0 | 0.00 | 0.11 | 0.00 | 87 | 1008.9 |
| 20260507035516 | 55 | 273 | 1.0 | 4.0 | 0.00 | 0.11 | 0.11 | 87 | 1008.9 |
| 20260507035019 | 55 | 316 | 1.0 | 4.0 | 0.00 | 0.11 | 0.11 | 87 | 1008.8 |
| 20260507034530 | 55 | 265 | 2.0 | 4.0 | 0.00 | 0.11 | 0.11 | 87 | 1008.7 |
| 20260507034015 | 55 | 275 | 2.0 | 6.0 | 0.00 | 0.11 | 0.11 | 87 | 1008.6 |
| 20260507033515 | 56 | 209 | 2.0 | 7.0 | 0.00 | 0.11 | 0.11 | 87 | 1008.6 |
| 20260507033034 | 56 | 323 | 3.0 | 7.0 | 0.00 | 0.11 | 0.11 | 87 | 1008.5 |
| 20260507032516 | 56 | 300 | 2.0 | 5.0 | 0.00 | 0.11 | 0.11 | 88 | 1008.5 |
| 20260507032018 | 56 | 336 | 1.0 | 4.0 | 0.00 | 0.11 | 0.11 | 88 | 1008.6 |
| 20260507031533 | 56 | 309 | 2.0 | 9.0 | 0.00 | 0.11 | 0.11 | 88 | 1008.7 |
| 20260507031015 | 56 | 316 | 2.0 | 9.0 | 0.00 | 0.11 | 0.11 | 88 | 1008.7 |
| 20260507030516 | 56 | 303 | 2.0 | 9.0 | 0.00 | 0.11 | 0.11 | 88 | 1008.8 |
| 20260507030030 | 56 | 309 | 2.0 | 6.0 | 0.00 | 0.11 | 0.11 | 88 | 1008.9 |
| 20260507025520 | 56 | 221 | 2.0 | 7.0 | 0.00 | 0.11 | 0.11 | 89 | 1009.0 |
| 20260507025015 | 56 | 295 | 2.0 | 7.0 | 0.01 | 0.11 | 0.11 | 89 | 1009.0 |
| 20260507024535 | 56 | 303 | 1.0 | 5.0 | 0.01 | 0.11 | 0.11 | 89 | 1009.0 |
| 20260507024019 | 56 | 291 | 1.0 | 5.0 | 0.01 | 0.11 | 0.11 | 89 | 1009.1 |
| 20260507023514 | 57 | 312 | 1.0 | 9.0 | 0.01 | 0.11 | 0.11 | 90 | 1009.2 |
| 20260507023032 | 57 | 309 | 3.0 | 9.0 | 0.01 | 0.11 | 0.11 | 90 | 1009.1 |
| 20260507022515 | 57 | 338 | 1.0 | 6.0 | 0.01 | 0.11 | 0.11 | 91 | 1009.1 |
| 20260507022016 | 57 | 317 | 2.0 | 7.0 | 0.02 | 0.11 | 0.11 | 91 | 1009.1 |
| 20260507021531 | 57 | 265 | 2.0 | 7.0 | 0.02 | 0.11 | 0.11 | 92 | 1009.0 |
| 20260507021015 | 57 | 270 | 1.0 | 5.0 | 0.02 | 0.11 | 0.11 | 92 | 1009.2 |
| 20260507020517 | 57 | 315 | 1.0 | 6.0 | 0.02 | 0.11 | 0.11 | 93 | 1009.0 |
| 20260507020035 | 57 | 232 | 3.0 | 6.0 | 0.02 | 0.11 | 0.11 | 93 | 1008.9 |
| 20260507015515 | 58 | 51 | 2.0 | 6.0 | 0.02 | 0.11 | 0.11 | 94 | 1008.8 |
| 20260507015017 | 58 | 236 | 2.0 | 6.0 | 0.01 | 0.10 | 0.10 | 94 | 1008.8 |
| 20260507014547 | 58 | 336 | 1.0 | 4.0 | 0.01 | 0.10 | 0.10 | 94 | 1008.9 |
| 20260507014015 | 58 | 317 | 1.0 | 3.0 | 0.01 | 0.10 | 0.10 | 94 | 1008.4 |
| 20260507013517 | 58 | 72 | 1.0 | 2.0 | 0.01 | 0.10 | 0.10 | 94 | 1008.5 |
| 20260507013043 | 58 | 51 | 0.0 | 2.0 | 0.01 | 0.10 | 0.10 | 94 | 1008.6 |
| 20260507012520 | 58 | 51 | 0.0 | 2.0 | 0.00 | 0.09 | 0.09 | 94 | 1008.5 |
| 20260507012020 | 58 | 334 | 0.0 | 2.0 | 0.00 | 0.09 | 0.09 | 94 | 1008.5 |
| 20260507011537 | 58 | 0 | 0.0 | 2.0 | 0.00 | 0.09 | 0.09 | 94 | 1008.4 |
| 20260507011014 | 58 | 0 | 0.0 | 2.0 | 0.00 | 0.09 | 0.09 | 94 | 1008.5 |
| 20260507010519 | 58 | 178 | 1.0 | 2.0 | 0.00 | 0.09 | 0.09 | 94 | 1008.6 |
| 20260507010033 | 58 | 221 | 0.0 | 3.0 | 0.00 | 0.09 | 0.09 | 94 | 1008.5 |
| 20260507005518 | 58 | 286 | 0.0 | 3.0 | 0.00 | 0.09 | 0.09 | 94 | 1008.4 |
| 20260507005015 | 58 | 247 | 0.0 | 3.0 | 0.00 | 0.09 | 0.09 | 94 | 1008.3 |
| 20260507004529 | 58 | 0 | 0.0 | 2.0 | 0.00 | 0.09 | 0.09 | 94 | 1008.3 |
| 20260507004016 | 58 | 0 | 0.0 | 2.0 | 0.00 | 0.09 | 0.09 | 94 | 1008.2 |
| 20260507003515 | 58 | 0 | 0.0 | 2.0 | 0.00 | 0.09 | 0.09 | 94 | 1008.2 |
| 20260507003034 | 59 | 67 | 1.0 | 2.0 | 0.00 | 0.09 | 0.09 | 94 | 1008.1 |
| 20260507002516 | 59 | 34 | 1.0 | 2.0 | 0.00 | 0.09 | 0.09 | 94 | 1008.2 |
| 20260507002017 | 59 | 146 | 1.0 | 3.0 | 0.00 | 0.09 | 0.09 | 94 | 1008.1 |
| 20260507001530 | 59 | 146 | 1.0 | 4.0 | 0.00 | 0.09 | 0.09 | 93 | 1008.1 |
| 20260507001018 | 59 | 126 | 1.0 | 4.0 | 0.00 | 0.09 | 0.09 | 94 | 1007.9 |
| 20260507000518 | 59 | 178 | 1.0 | 4.0 | 0.00 | 0.09 | 0.09 | 93 | 1007.8 |
| 20260507000032 | 59 | 238 | 1.0 | 4.0 | 0.00 | 0.09 | 0.09 | 93 | 1007.9 |
| 20260506235516 | 60 | 0 | 1.0 | 4.0 | 0.00 | 0.09 | 0.09 | 93 | 1007.8 |
| 20260506235016 | 60 | 126 | 1.0 | 5.0 | 0.00 | 0.09 | 0.09 | 94 | 1007.7 |
| 20260506234530 | 60 | 265 | 1.0 | 5.0 | 0.00 | 0.09 | 0.09 | 94 | 1007.7 |
| 20260506234014 | 60 | 200 | 1.0 | 5.0 | 0.00 | 0.09 | 0.09 | 94 | 1007.8 |
| 20260506233515 | 60 | 190 | 1.0 | 5.0 | 0.00 | 0.09 | 0.09 | 94 | 1007.8 |
| 20260506233032 | 60 | 149 | 2.0 | 4.0 | 0.00 | 0.09 | 0.09 | 94 | 1007.9 |
| 20260506232519 | 60 | 149 | 1.0 | 4.0 | 0.00 | 0.09 | 0.09 | 94 | 1008.0 |
| 20260506232014 | 60 | 187 | 2.0 | 4.0 | 0.00 | 0.09 | 0.09 | 94 | 1007.9 |
| 20260506231529 | 60 | 171 | 1.0 | 4.0 | 0.00 | 0.09 | 0.09 | 94 | 1008.1 |
| 20260506231017 | 60 | 221 | 1.0 | 4.0 | 0.00 | 0.09 | 0.09 | 94 | 1008.1 |
| 20260506230514 | 60 | 200 | 1.0 | 5.0 | 0.00 | 0.09 | 0.09 | 94 | 1008.0 |
| 20260506230031 | 60 | 255 | 1.0 | 5.0 | 0.00 | 0.09 | 0.09 | 94 | 1007.9 |
| 20260506225519 | 60 | 185 | 1.0 | 5.0 | 0.00 | 0.09 | 0.09 | 94 | 1007.8 |
| 20260506225016 | 60 | 205 | 1.0 | 5.0 | 0.00 | 0.09 | 0.09 | 94 | 1007.7 |
| 20260506224531 | 60 | 178 | 2.0 | 5.0 | 0.00 | 0.09 | 0.09 | 94 | 1007.7 |
| 20260506224014 | 59 | 217 | 2.0 | 6.0 | 0.00 | 0.09 | 0.09 | 94 | 1007.7 |
| 20260506223517 | 59 | 188 | 2.0 | 6.0 | 0.00 | 0.09 | 0.09 | 94 | 1007.6 |
| 20260506223032 | 59 | 212 | 1.0 | 4.0 | 0.00 | 0.09 | 0.09 | 94 | 1007.5 |
| 20260506222517 | 59 | 178 | 1.0 | 5.0 | 0.00 | 0.09 | 0.09 | 94 | 1007.5 |
| 20260506222014 | 59 | 188 | 2.0 | 6.0 | 0.00 | 0.09 | 0.09 | 94 | 1007.5 |
| 20260506221530 | 59 | 190 | 2.0 | 6.0 | 0.00 | 0.09 | 0.09 | 94 | 1007.6 |
| 20260506221018 | 59 | 212 | 1.0 | 4.0 | 0.00 | 0.09 | 0.09 | 94 | 1007.4 |
| 20260506220514 | 59 | 247 | 1.0 | 4.0 | 0.00 | 0.09 | 0.09 | 94 | 1007.5 |
| 20260506220032 | 59 | 254 | 2.0 | 5.0 | 0.00 | 0.09 | 0.09 | 94 | 1007.4 |
| 20260506215517 | 59 | 232 | 2.0 | 5.0 | 0.00 | 0.09 | 0.09 | 93 | 1007.4 |
| 20260506215015 | 59 | 250 | 2.0 | 6.0 | 0.00 | 0.09 | 0.09 | 94 | 1007.4 |
| 20260506214531 | 59 | 219 | 2.0 | 6.0 | 0.00 | 0.09 | 0.09 | 94 | 1007.3 |
| 20260506214016 | 59 | 0 | 2.0 | 8.0 | 0.00 | 0.09 | 0.09 | 94 | 1007.3 |
| 20260506213515 | 59 | 111 | 3.0 | 8.0 | 0.00 | 0.09 | 0.09 | 93 | 1007.3 |
| 20260506213030 | 59 | 221 | 2.0 | 6.0 | 0.00 | 0.09 | 0.09 | 93 | 1007.3 |
| 20260506212514 | 59 | 137 | 2.0 | 8.0 | 0.00 | 0.09 | 0.09 | 93 | 1007.3 |
| 20260506212014 | 60 | 165 | 2.0 | 8.0 | 0.00 | 0.09 | 0.09 | 93 | 1007.3 |
| 20260506211532 | 60 | 196 | 1.0 | 5.0 | 0.01 | 0.09 | 0.09 | 94 | 1007.3 |
| 20260506211015 | 60 | 238 | 1.0 | 6.0 | 0.02 | 0.09 | 0.09 | 94 | 1007.2 |
| 20260506210516 | 59 | 178 | 2.0 | 9.0 | 0.02 | 0.09 | 0.09 | 94 | 1007.1 |
| 20260506210037 | 59 | 201 | 3.0 | 9.0 | 0.02 | 0.09 | 0.09 | 94 | 1007.1 |
| 20260506205516 | 59 | 200 | 3.0 | 8.0 | 0.02 | 0.09 | 0.09 | 93 | 1007.1 |
| 20260506205015 | 59 | 171 | 2.0 | 8.0 | 0.02 | 0.09 | 0.09 | 93 | 1007.0 |
| 20260506204532 | 59 | 142 | 2.0 | 7.0 | 0.02 | 0.09 | 0.09 | 93 | 1007.0 |
| 20260506204016 | 59 | 215 | 3.0 | 7.0 | 0.03 | 0.09 | 0.09 | 94 | 1007.1 |
| 20260506203516 | 59 | 212 | 2.0 | 9.0 | 0.03 | 0.09 | 0.09 | 93 | 1007.1 |
| 20260506203042 | 59 | 0 | 3.0 | 9.0 | 0.04 | 0.09 | 0.09 | 93 | 1007.1 |
| 20260506202514 | 58 | 190 | 3.0 | 9.0 | 0.04 | 0.09 | 0.09 | 93 | 1007.2 |
| 20260506202013 | 58 | 265 | 3.0 | 7.0 | 0.05 | 0.09 | 0.09 | 93 | 1007.3 |
| 20260506201531 | 58 | 226 | 2.0 | 6.0 | 0.04 | 0.08 | 0.08 | 93 | 1007.3 |
| 20260506201017 | 58 | 207 | 2.0 | 8.0 | 0.03 | 0.07 | 0.07 | 93 | 1007.3 |
| 20260506200516 | 58 | 210 | 3.0 | 8.0 | 0.03 | 0.07 | 0.07 | 93 | 1007.3 |
| 20260506200032 | 58 | 165 | 2.0 | 10.0 | 0.03 | 0.07 | 0.07 | 93 | 1007.4 |
| 20260506195514 | 58 | 167 | 2.0 | 10.0 | 0.03 | 0.07 | 0.07 | 93 | 1007.5 |
| 20260506195016 | 58 | 128 | 3.0 | 7.0 | 0.03 | 0.07 | 0.07 | 92 | 1007.5 |
| 20260506194530 | 58 | 225 | 2.0 | 11.0 | 0.03 | 0.07 | 0.07 | 92 | 1007.7 |
| 20260506194014 | 58 | 142 | 2.0 | 11.0 | 0.02 | 0.06 | 0.06 | 92 | 1007.9 |
| 20260506193514 | 58 | 158 | 3.0 | 8.0 | 0.02 | 0.06 | 0.06 | 92 | 1008.0 |
| 20260506193029 | 58 | 221 | 3.0 | 7.0 | 0.01 | 0.05 | 0.05 | 91 | 1008.0 |
| 20260506192516 | 58 | 200 | 3.0 | 6.0 | 0.01 | 0.05 | 0.05 | 91 | 1008.0 |
| 20260506192017 | 58 | 203 | 3.0 | 7.0 | 0.00 | 0.04 | 0.04 | 91 | 1008.1 |
| 20260506191534 | 59 | 166 | 1.0 | 9.0 | 0.00 | 0.04 | 0.04 | 91 | 1008.1 |
| 20260506191014 | 59 | 183 | 3.0 | 9.0 | 0.00 | 0.04 | 0.04 | 91 | 1008.0 |
| 20260506190519 | 59 | 188 | 3.0 | 8.0 | 0.00 | 0.04 | 0.04 | 91 | 1007.9 |
| 20260506190031 | 59 | 223 | 3.0 | 7.0 | 0.00 | 0.04 | 0.04 | 91 | 1007.9 |
| 20260506185517 | 59 | 146 | 1.0 | 7.0 | 0.00 | 0.04 | 0.04 | 91 | 1008.0 |
| 20260506185015 | 59 | 178 | 2.0 | 7.0 | 0.01 | 0.04 | 0.04 | 91 | 1008.1 |
| 20260506184530 | 59 | 265 | 2.0 | 7.0 | 0.01 | 0.04 | 0.04 | 91 | 1008.1 |
| 20260506184014 | 59 | 190 | 2.0 | 6.0 | 0.01 | 0.04 | 0.04 | 91 | 1008.0 |
| 20260506183516 | 59 | 232 | 3.0 | 8.0 | 0.02 | 0.04 | 0.04 | 91 | 1008.1 |
| 20260506183030 | 59 | 178 | 2.0 | 8.0 | 0.02 | 0.04 | 0.04 | 91 | 1008.2 |
| 20260506182516 | 59 | 238 | 3.0 | 8.0 | 0.02 | 0.04 | 0.04 | 91 | 1008.3 |
| 20260506182014 | 60 | 265 | 2.0 | 9.0 | 0.02 | 0.04 | 0.04 | 91 | 1008.3 |
| 20260506181534 | 59 | 147 | 2.0 | 9.0 | 0.02 | 0.04 | 0.04 | 91 | 1008.5 |
| 20260506181014 | 59 | 163 | 2.0 | 7.0 | 0.02 | 0.04 | 0.04 | 91 | 1008.6 |
| 20260506180519 | 59 | 140 | 2.0 | 7.0 | 0.02 | 0.04 | 0.04 | 91 | 1008.7 |
| 20260506180038 | 59 | 265 | 2.0 | 6.0 | 0.03 | 0.04 | 0.04 | 91 | 1008.9 |
| 20260506175515 | 59 | 146 | 2.0 | 7.0 | 0.03 | 0.04 | 0.04 | 91 | 1008.8 |
| 20260506175017 | 59 | 225 | 3.0 | 7.0 | 0.02 | 0.03 | 0.03 | 90 | 1008.9 |
| 20260506174532 | 59 | 223 | 3.0 | 9.0 | 0.02 | 0.03 | 0.03 | 90 | 1008.6 |
| 20260506174015 | 59 | 201 | 3.0 | 11.0 | 0.03 | 0.03 | 0.03 | 89 | 1008.6 |
| 20260506173516 | 59 | 209 | 5.0 | 11.0 | 0.02 | 0.02 | 0.02 | 89 | 1008.7 |
| 20260506173032 | 59 | 221 | 4.0 | 11.0 | 0.02 | 0.02 | 0.02 | 89 | 1008.6 |
| 20260506172514 | 59 | 171 | 4.0 | 11.0 | 0.02 | 0.02 | 0.02 | 89 | 1008.6 |
| 20260506172017 | 59 | 147 | 3.0 | 9.0 | 0.02 | 0.02 | 0.02 | 89 | 1008.7 |
| 20260506171546 | 60 | 167 | 2.0 | 7.0 | 0.02 | 0.02 | 0.02 | 89 | 1008.8 |
| 20260506171015 | 60 | 173 | 3.0 | 10.0 | 0.02 | 0.02 | 0.02 | 88 | 1008.9 |
| 20260506170516 | 60 | 221 | 4.0 | 10.0 | 0.02 | 0.02 | 0.02 | 87 | 1008.8 |
| 20260506170037 | 60 | 198 | 1.0 | 10.0 | 0.01 | 0.01 | 0.01 | 87 | 1008.9 |
| 20260506165514 | 60 | 158 | 2.0 | 7.0 | 0.01 | 0.01 | 0.01 | 86 | 1008.9 |
| 20260506165016 | 61 | 0 | 2.0 | 6.0 | 0.01 | 0.01 | 0.01 | 85 | 1008.9 |
| 20260506164531 | 61 | 137 | 1.0 | 6.0 | 0.00 | 0.00 | 0.00 | 84 | 1009.1 |
| 20260506164017 | 62 | 123 | 1.0 | 9.0 | 0.00 | 0.00 | 0.00 | 83 | 1009.3 |
| 20260506163513 | 62 | 338 | 3.0 | 9.0 | 0.00 | 0.00 | 0.00 | 82 | 1009.3 |
| 20260506163041 | 62 | 134 | 1.0 | 9.0 | 0.00 | 0.00 | 0.00 | 81 | 1009.7 |
| 20260506162515 | 63 | 316 | 2.0 | 9.0 | 0.00 | 0.00 | 0.00 | 80 | 1009.8 |
| 20260506162016 | 63 | 223 | 2.0 | 9.0 | 0.00 | 0.00 | 0.00 | 79 | 1009.9 |
| 20260506161539 | 63 | 217 | 2.0 | 9.0 | 0.00 | 0.00 | 0.00 | 79 | 1009.9 |
| 20260506161019 | 63 | 215 | 4.0 | 9.0 | 0.00 | 0.00 | 0.00 | 78 | 1009.9 |
| 20260506160515 | 63 | 232 | 2.0 | 7.0 | 0.00 | 0.00 | 0.00 | 78 | 1009.6 |
| 20260506160031 | 63 | 149 | 4.0 | 7.0 | 0.00 | 0.00 | 0.00 | 77 | 1009.7 |
| 20260506155518 | 64 | 250 | 2.0 | 8.0 | 0.00 | 0.00 | 0.00 | 77 | 1009.8 |
| 20260506155014 | 64 | 149 | 2.0 | 8.0 | 0.00 | 0.00 | 0.00 | 76 | 1009.8 |
| 20260506154533 | 64 | 166 | 3.0 | 8.0 | 0.00 | 0.00 | 0.00 | 76 | 1009.9 |
| 20260506154017 | 64 | 162 | 2.0 | 9.0 | 0.00 | 0.00 | 0.00 | 76 | 1010.0 |
| 20260506153517 | 64 | 126 | 3.0 | 10.0 | 0.00 | 0.00 | 0.00 | 75 | 1010.1 |
| 20260506153031 | 64 | 166 | 3.0 | 10.0 | 0.00 | 0.00 | 0.00 | 76 | 1010.1 |
| 20260506152518 | 64 | 191 | 5.0 | 11.0 | 0.00 | 0.00 | 0.00 | 75 | 1010.2 |
| 20260506152016 | 65 | 211 | 5.0 | 11.0 | 0.00 | 0.00 | 0.00 | 75 | 1010.3 |
| 20260506151536 | 65 | 213 | 4.0 | 9.0 | 0.00 | 0.00 | 0.00 | 74 | 1010.4 |
| 20260506151014 | 65 | 134 | 4.0 | 11.0 | 0.00 | 0.00 | 0.00 | 75 | 1010.3 |
| 20260506150515 | 65 | 211 | 4.0 | 11.0 | 0.00 | 0.00 | 0.00 | 75 | 1010.2 |
| 20260506150036 | 65 | 191 | 4.0 | 12.0 | 0.00 | 0.00 | 0.00 | 75 | 1010.4 |
| 20260506145515 | 64 | 191 | 4.0 | 12.0 | 0.00 | 0.00 | 0.00 | 76 | 1010.3 |
| 20260506145017 | 64 | 223 | 5.0 | 12.0 | 0.00 | 0.00 | 0.00 | 75 | 1010.0 |
| 20260506144532 | 64 | 115 | 5.0 | 11.0 | 0.00 | 0.00 | 0.00 | 75 | 1010.1 |
| 20260506144015 | 64 | 202 | 4.0 | 11.0 | 0.00 | 0.00 | 0.00 | 76 | 1010.1 |
| 20260506143516 | 64 | 189 | 4.0 | 11.0 | 0.00 | 0.00 | 0.00 | 75 | 1010.2 |
| 20260506143030 | 64 | 157 | 3.0 | 10.0 | 0.00 | 0.00 | 0.00 | 76 | 1010.2 |
| 20260506142516 | 64 | 38 | 4.0 | 10.0 | 0.00 | 0.00 | 0.00 | 76 | 1010.2 |
| 20260506142015 | 64 | 225 | 3.0 | 9.0 | 0.00 | 0.00 | 0.00 | 76 | 1010.2 |
| 20260506141530 | 64 | 188 | 4.0 | 10.0 | 0.00 | 0.00 | 0.00 | 76 | 1010.4 |
| 20260506141015 | 64 | 221 | 4.0 | 11.0 | 0.00 | 0.00 | 0.00 | 77 | 1010.3 |
| 20260506140516 | 64 | 157 | 4.0 | 11.0 | 0.00 | 0.00 | 0.00 | 77 | 1010.5 |
| 20260506140030 | 64 | 203 | 5.0 | 12.0 | 0.00 | 0.00 | 0.00 | 77 | 1010.4 |
| 20260506135519 | 64 | 200 | 6.0 | 12.0 | 0.00 | 0.00 | 0.00 | 77 | 1010.4 |
| 20260506135024 | 63 | 203 | 4.0 | 12.0 | 0.00 | 0.00 | 0.00 | 78 | 1010.4 |
| 20260506134605 | 63 | 153 | 6.0 | 12.0 | 0.00 | 0.00 | 0.00 | 78 | 1010.2 |
| 20260506134015 | 63 | 160 | 6.0 | 11.0 | 0.00 | 0.00 | 0.00 | 79 | 1010.3 |
| 20260506133513 | 63 | 242 | 5.0 | 9.0 | 0.00 | 0.00 | 0.00 | 79 | 1010.4 |
| 20260506133033 | 62 | 229 | 2.0 | 6.0 | 0.00 | 0.00 | 0.00 | 80 | 1010.4 |
| 20260506132515 | 62 | 238 | 2.0 | 8.0 | 0.00 | 0.00 | 0.00 | 81 | 1010.4 |
| 20260506132016 | 62 | 160 | 3.0 | 10.0 | 0.00 | 0.00 | 0.00 | 81 | 1010.4 |
| 20260506131532 | 61 | 186 | 3.0 | 11.0 | 0.00 | 0.00 | 0.00 | 82 | 1010.2 |
| 20260506131015 | 61 | 211 | 3.0 | 11.0 | 0.00 | 0.00 | 0.00 | 82 | 1010.1 |
| 20260506130523 | 61 | 142 | 5.0 | 11.0 | 0.00 | 0.00 | 0.00 | 82 | 1010.0 |
| 20260506130034 | 61 | 265 | 3.0 | 9.0 | 0.00 | 0.00 | 0.00 | 83 | 1010.0 |
| 20260506125513 | 61 | 169 | 3.0 | 9.0 | 0.00 | 0.00 | 0.00 | 82 | 1010.0 |
| 20260506125015 | 61 | 156 | 2.0 | 9.0 | 0.00 | 0.00 | 0.00 | 83 | 1010.1 |
| 20260506124530 | 61 | 182 | 3.0 | 9.0 | 0.00 | 0.00 | 0.00 | 83 | 1010.1 |
| 20260506124016 | 61 | 144 | 3.0 | 9.0 | 0.00 | 0.00 | 0.00 | 83 | 1010.1 |
| 20260506123516 | 61 | 234 | 3.0 | 9.0 | 0.00 | 0.00 | 0.00 | 83 | 1010.2 |
| 20260506123030 | 61 | 225 | 3.0 | 12.0 | 0.00 | 0.00 | 0.00 | 83 | 1010.3 |
| 20260506122515 | 61 | 184 | 3.0 | 12.0 | 0.00 | 0.00 | 0.00 | 83 | 1010.3 |
| 20260506122014 | 60 | 205 | 3.0 | 10.0 | 0.00 | 0.00 | 0.00 | 84 | 1010.4 |
| 20260506121529 | 60 | 209 | 3.0 | 10.0 | 0.00 | 0.00 | 0.00 | 84 | 1010.6 |
| 20260506121016 | 60 | 126 | 4.0 | 10.0 | 0.00 | 0.00 | 0.00 | 85 | 1010.7 |
| 20260506120516 | 60 | 291 | 3.0 | 8.0 | 0.00 | 0.00 | 0.00 | 85 | 1010.7 |
| 20260506120031 | 59 | 207 | 3.0 | 8.0 | 0.00 | 0.00 | 0.00 | 86 | 1010.8 |
| 20260506115516 | 59 | 201 | 3.0 | 9.0 | 0.00 | 0.00 | 0.00 | 86 | 1010.7 |
| 20260506115014 | 59 | 213 | 3.0 | 9.0 | 0.00 | 0.00 | 0.00 | 86 | 1010.9 |
| 20260506114539 | 58 | 232 | 3.0 | 8.0 | 0.00 | 0.00 | 0.00 | 87 | 1010.8 |
| 20260506114015 | 58 | 130 | 3.0 | 9.0 | 0.00 | 0.00 | 0.00 | 88 | 1010.7 |
| 20260506113514 | 58 | 221 | 3.0 | 9.0 | 0.00 | 0.00 | 0.00 | 88 | 1010.8 |
| 20260506113037 | 57 | 195 | 4.0 | 8.0 | 0.00 | 0.00 | 0.00 | 88 | 1010.6 |
| 20260506112517 | 57 | 221 | 2.0 | 8.0 | 0.00 | 0.00 | 0.00 | 88 | 1010.5 |
| 20260506112016 | 57 | 200 | 3.0 | 7.0 | 0.00 | 0.00 | 0.00 | 89 | 1010.3 |
| 20260506111530 | 57 | 221 | 2.0 | 7.0 | 0.00 | 0.00 | 0.00 | 89 | 1010.3 |
| 20260506111015 | 56 | 225 | 2.0 | 7.0 | 0.00 | 0.00 | 0.00 | 89 | 1010.3 |
| 20260506110518 | 56 | 205 | 2.0 | 6.0 | 0.00 | 0.00 | 0.00 | 89 | 1010.5 |
| 20260506110033 | 56 | 217 | 3.0 | 8.0 | 0.00 | 0.00 | 0.00 | 89 | 1010.5 |
| 20260506105515 | 56 | 221 | 2.0 | 9.0 | 0.00 | 0.00 | 0.00 | 90 | 1010.5 |
| 20260506105013 | 56 | 216 | 3.0 | 9.0 | 0.00 | 0.00 | 0.00 | 90 | 1010.5 |
| 20260506104530 | 56 | 187 | 3.0 | 8.0 | 0.00 | 0.00 | 0.00 | 90 | 1010.2 |
| 20260506104016 | 56 | 190 | 2.0 | 7.0 | 0.00 | 0.00 | 0.00 | 90 | 1010.2 |
| 20260506103514 | 56 | 208 | 3.0 | 7.0 | 0.00 | 0.00 | 0.00 | 90 | 1010.2 |
| 20260506103032 | 55 | 205 | 3.0 | 7.0 | 0.00 | 0.00 | 0.00 | 90 | 1010.2 |
| 20260506102516 | 55 | 141 | 2.0 | 6.0 | 0.00 | 0.00 | 0.00 | 90 | 1010.0 |
| 20260506102013 | 55 | 208 | 2.0 | 6.0 | 0.00 | 0.00 | 0.00 | 90 | 1010.1 |
| 20260506101530 | 55 | 196 | 3.0 | 6.0 | 0.00 | 0.00 | 0.00 | 90 | 1010.0 |
| 20260506101014 | 55 | 225 | 3.0 | 6.0 | 0.00 | 0.00 | 0.00 | 90 | 1010.1 |
| 20260506100516 | 55 | 178 | 2.0 | 7.0 | 0.00 | 0.00 | 0.00 | 90 | 1010.1 |
| 20260506100035 | 55 | 201 | 2.0 | 7.0 | 0.00 | 0.00 | 0.00 | 90 | 1010.1 |
| 20260506095517 | 55 | 166 | 2.0 | 7.0 | 0.00 | 0.00 | 0.00 | 90 | 1010.1 |
| 20260506095017 | 55 | 219 | 1.0 | 7.0 | 0.00 | 0.00 | 0.00 | 90 | 1010.2 |
| 20260506094531 | 55 | 234 | 2.0 | 7.0 | 0.00 | 0.00 | 0.00 | 90 | 1010.1 |
| 20260506094016 | 55 | 208 | 2.0 | 7.0 | 0.00 | 0.00 | 0.00 | 90 | 1010.0 |
| 20260506093516 | 55 | 166 | 2.0 | 7.0 | 0.00 | 0.00 | 0.00 | 90 | 1010.0 |
| 20260506093034 | 55 | 247 | 2.0 | 7.0 | 0.00 | 0.00 | 0.00 | 90 | 1010.0 |
| 20260506092517 | 55 | 219 | 3.0 | 7.0 | 0.00 | 0.00 | 0.00 | 90 | 1010.1 |
| 20260506092016 | 55 | 232 | 2.0 | 7.0 | 0.00 | 0.00 | 0.00 | 90 | 1010.0 |
| 20260506091530 | 55 | 208 | 2.0 | 7.0 | 0.00 | 0.00 | 0.00 | 89 | 1010.1 |
| 20260506091015 | 55 | 241 | 2.0 | 7.0 | 0.00 | 0.00 | 0.00 | 89 | 1010.1 |
| 20260506090514 | 55 | 210 | 1.0 | 7.0 | 0.00 | 0.00 | 0.00 | 89 | 1010.1 |
| 20260506090032 | 55 | 178 | 2.0 | 8.0 | 0.00 | 0.00 | 0.00 | 89 | 1010.2 |
| 20260506085514 | 55 | 221 | 2.0 | 8.0 | 0.00 | 0.00 | 0.00 | 89 | 1010.3 |